Regional Weather Roundup
Issued by NWS Albany, NY

Home | Current Version | Previous Version | Graphics & Text | Print | Product List | Glossary Off
Versions: 1 2 3 4 5 6 7 8 9 10 11 12 13 14 15 16 17 18 19 20 21 22 23 24 25 26 27 28 29 30 31 32 33 34 35 36 37 38 39 40 41 42 43 44 45 46 47 48 49 50

000
ASUS41 KALY 062310
RWRALY

NEW YORK STATE HOURLY WEATHER ROUNDUP
NATIONAL WEATHER SERVICE ALBANY NY
700 PM EDT WED MAY 06 2015

NOTE: "FAIR" INDICATES FEW OR NO CLOUDS BELOW 12,000 FEET WITH NO
SIGNIFICANT WEATHER AND/OR NO OBSTRUCTIONS TO VISIBILITY.

NYZ032-033-038>043-046>054-057>066-NYZ062>081-070000-
EAST


CITY           SKY/WX    TMP DP  RH WIND       PRES   REMARKS
ALBANY         PTCLDY    75  33  21 SE7       30.16F
GLENS FALLS    CLEAR     73  32  22 S10       30.15F
POUGHKEEPSIE   PTCLDY    70  39  32 SW6       30.20F
NEWBURGH       PTCLDY    68  43  40 CALM      30.23S
MONTGOMERY     PTCLDY    69  45  41 W3        30.20F
WHITE PLAINS   PTCLDY    64  46  52 CALM      30.22F
ISLIP          PTCLDY    64  34  32 SE9       30.21F
NEW YORK CITY  PTCLDY    65  45  48 NE7       30.22F
CENTRAL PARK   CLEAR     67  43  41 VRB5      30.25F
$$

NYZ005>009-017-018-044>046-055-056-070000-
CENTRAL


CITY           SKY/WX    TMP DP  RH WIND       PRES   REMARKS
FULTON         SUNNY     69  36  29 N9        30.19S
SYRACUSE       MOSUNNY   73  39  29 NW12      30.16F
ROME           SUNNY     75  29  18 CALM      30.17F
ELMIRA         MOSUNNY   65  54  67 SE7       30.21S
BINGHAMTON     SUNNY     63  50  62 SW7       30.22F
MONTICELLO     MOSUNNY   64  41  42 SW6       30.24F
$$

NYZ026>034-041>043-070000-
NORTH


CITY           SKY/WX    TMP DP  RH WIND       PRES   REMARKS
WATERTOWN      SUNNY     70  36  28 W6        30.18F
FORT DRUM      NOT AVBL
MASSENA        SUNNY     73  34  23 W7        30.16F
SARANAC LAKE   SUNNY     69  29  22 CALM      30.18S
PLATTSBURGH    CLEAR     71  31  22 SE5       30.14F
$$

NYZ001>004-010>016-019>021-070000-
WEST


CITY           SKY/WX    TMP DP  RH WIND       PRES   REMARKS
NIAGARA FALLS  MOSUNNY   70  40  33 NE12      30.17S
BUFFALO        PTSUNNY   73  42  32 NE14      30.16S
DUNKIRK        MOSUNNY   67  53  61 N5        30.17F
JAMESTOWN      PTSUNNY   66  55  68 E5        30.20F
WELLSVILLE     CLOUDY    60  52  74 SE5       30.24S
ROCHESTER      MOSUNNY   68  37  32 N10       30.19S
PENN YAN       MOSUNNY   70  52  52 SW8       30.20S
$$

             KEY
       WCI = WIND CHILL INDEX
       VSB = VISIBILITY
       HX  = HEAT INDEX
$$



USA.gov is the U.S. government's official web portal to all federal, state and local government web resources and services.